AMC-6

Last updated on Fri Dec 19 2025 00:02:48 GMT+0000 (Coordinated Universal Time)

1 26580U 00067A 25352.59850155 .00000113 00000+0 00000+0 0 9992 2 26580 0.0214 342.5974 0002650 273.8372 271.4253 1.00271959 92086
UTC large
Height (km)
Speed (km/s)
/
Latitude / Longitude
Inclination (degrees)
Orbital Period (minutes)
Azimuth
Elevation
Range (km)
Doppler Factor

Next 0 passes for location: London (51.5072 / 0.1276)

Sorry there are no passes over London.